SCP
0 0 0 0 0 0 0 0 0 0 0 0 0 0 0 0 0 0 0 0 0 0 0 0 0 0 0 0 0 0 0 0 0 0 0 0 0 0
0 0 0 0 0 0 0 0 0 0 0 0 0 0 0 0 0 0 0 0 0 0 0 0 0 0 0 0 0 0 0 0 0 0 0 0 0 0
0 0 0 0 0 0 0 0 0 0 0 0 0 0 0 0 0 0 0 0 0 0 0 0 0 0 0 0 0 0 0 0 0 0 0 0 0 0
0 0 0 0 0 0 0 0 0 0 0 0 0 0 0 0 0 0 0 0 0 0 0 0 0 0 0 0 0 0 0 0 0 0 0 0 0 0
0 0 0 0 0 0 0 0 0 0 0 0 0 0 0 0 0 0 0 0 0 0 0 0 0 0 0 0 0 0 0 0 0 0 0 0 0 0
0 0 0 0 0 0 0 0 0 0 0 0 0 0 0 0 0 0 0 0 0 0 0 0 0 0 0 0 0 0 0 0 0 0 0 0 0 0
0 0 0 0 0 0 0 0 0 0 0 0 0 0 0 0 0 0 0 0 0 0 0 0 0 0 0 0 0 0 0 0 0 0 0 0 0 0
0 0 0 0 0 0 0 0 0 0 0 0 0 0 0 0 0 0 0 0 0 0 0 0 0 0 0 0 0 0 0 0 0 0 0 0 0 0
0 0 0 0 0 0 0 0 0 0 0 0 0 0 0 0 0 0 0 0 0 0 0 0 0 0 0 0 0 0 0 0 0 0 0 0 0 0
0 0 0 0 0 0 0 0 0 0 0 0 0 0 0 0 0 0 0 0 0 0 0 0 0 0 0 0 0 0 0 0 0 0 0 0 0 0
0 0 0 0 0 0 0 0 0 0 0 0 0 0 0 0 0 0 0 0 0 0 0 0 0 0 0 0 0 0 0 0 0 0 0 0 0 0
0 0 0 0 0 0 0 0 0 0 0 0 0 0 0 0 0 0 0 0 0 0 0 0 0 0 0 0 0 0 0 0 0 0 0 0 0 0
0 0 0 0 0 0 0 0 0 0 0 0 0 0 0 0 0 0 0 0 0 0 0 0 0 0 0 0 0 0 0 0 0 0 0 0 0 0
0 0 0 0 0 0 0 0 0 0 0 0 0 0 0 0 0 0 0 0 0 0 0 0 0 0 0 0 0 0 0 0 0 0 0 0 0 0
0 0 0 0 0 0 0 0 0 0 0 0 0 0 0 0 0 0 0 0 0 0 0 0 0 0 0 0 0 0 0 0 0 0 0 0 0 0
0 0 0 0 0 0 0 0 0 0 0 0 0 0 0 0 0 0 0 0 0 0 0 0 0 0 0 0 0 0 0 0 0 0 0 0 0 0
0 0 0 0 0 0 0 0 0 0 0 0 0 0 0 0 0 0 0 0 0 0 0 0 0 0 0 0 0 0 0 0 0 0 0 0 0 0
0 0 0 0 0 0 0 0 0 0 0 0 0 0 0 0 0 0 0 0 0 0 0 0 0 0 0 0 0 0 0 0 0 0 0 0 0 0
0 0 0 0 0 0 0 0 0 0 0 0 0 0 0 0 0 0 0 0 0 0 0 0 0 0 0 0 0 0 0 0 0 0 0 0 0 0
0 0 0 0 0 0 0 0 0 0 0 0 0 0 0 0 0 0 0 0 0 0 0 0 0 0 0 0 0 0 0 0 0 0 0 0 0 0
0 0 0 0 0 0 0 0 0 0 0 0 0 0 0 0 0 0 0 0 0 0 0 0 0 0 0 0 0 0 0 0 0 0 0 0 0 0
0 0 0 0 0 0 0 0 0 0 0 0 0 0 0 0 0 0 0 0 0 0 0 0 0 0 0 0 0 0 0 0 0 0 0 0 0 0
0 0 0 0 0 0 0 0 0 0 0 0 0 0 0 0 0 0 0 0 0 0 0 0 0 0 0 0 0 0 0 0 0 0 0 0 0 0
Wind_Speed
9 9 7 6 5 5 4 5 4 4 4 4 3 2 2 2 3 2 3 7 10 11 13 13 14 15 16 17 17 17 18 18 19 19 20 20 21 21
7 8 8 5 5 5 5 4 5 5 5 3 3 2 2 2 3 2 3 8 10 12 13 14 14 14 15 16 16 17 18 18 18 19 20 20 20 20
8 9 9 7 5 5 4 4 5 5 6 4 2 2 2 2 2 2 3 3 4 11 13 13 14 14 14 15 16 16 17 18 18 19 19 19 20 20
10 9 9 6 7 5 5 6 5 6 5 6 3 2 3 2 2 3 3 3 3 9 12 13 13 14 14 14 15 16 16 17 17 17 18 19 20 20
10 11 9 8 8 6 6 6 5 5 4 4 3 2 2 1 2 2 3 3 4 7 9 11 12 13 13 14 15 15 15 16 16 17 18 18 19 19
9 9 9 10 10 9 7 7 5 5 4 3 3 2 2 1 1 2 3 3 4 4 6 8 10 12 13 15 15 15 15 15 16 17 17 17 18 19
8 8 8 10 11 9 6 6 6 5 4 4 3 2 2 1 2 2 3 4 4 3 3 4 5 5 6 11 13 14 15 15 16 16 17 17 17 18
8 7 7 9 10 11 10 9 9 7 6 4 4 4 4 3 2 2 2 2 4 2 2 5 3 5 5 4 11 14 15 15 15 16 16 17 17 17
9 8 6 6 8 6 7 8 7 7 7 6 5 5 4 4 3 3 3 3 5 3 2 5 3 5 5 6 13 14 15 15 15 16 16 16 17 17
8 8 8 7 7 8 6 5 5 4 5 4 5 5 4 4 4 3 3 3 3 3 2 4 3 4 6 5 11 13 13 14 15 16 16 16 17 18
6 7 8 8 11 11 8 6 5 3 3 4 4 3 3 2 1 1 0 1 3 3 1 2 3 5 5 4 6 11 13 15 16 16 16 16 17 16
5 6 9 9 11 12 8 7 7 5 4 3 2 1 1 1 1 1 2 2 2 3 2 2 2 3 5 3 3 5 6 11 15 15 16 16 16 8
5 5 5 11 11 11 9 6 7 5 4 4 2 1 1 1 1 1 2 2 2 3 2 1 2 2 3 5 5 4 4 5 6 8 12 15 15 11
6 5 6 10 10 10 7 7 7 6 4 3 2 2 2 1 1 1 1 2 3 4 4 2 2 2 3 5 6 5 4 5 5 5 5 11 12 14
5 8 9 10 9 7 7 8 6 4 4 3 3 2 2 2 1 1 1 1 2 3 3 3 3 3 3 5 6 5 5 5 4 4 5 6 6 6
5 8 10 9 6 6 6 4 3 3 3 3 2 2 1 1 1 1 1 1 2 3 3 3 4 4 4 6 6 7 5 5 5 6 7 7 6 5
7 5 4 4 4 3 3 3 3 3 3 2 2 2 1 1 1 1 1 1 1 3 4 3 3 4 7 6 6 7 6 6 6 6 7 8 7 6
7 5 5 5 5 5 4 3 3 3 3 3 3 2 2 2 1 1 1 1 2 3 3 3 3 4 4 4 8 7 5 5 6 6 5 7 9 7
5 5 5 5 5 4 4 4 3 3 3 3 3 3 2 2 2 2 2 2 3 3 3 2 2 2 4 6 6 6 5 6 6 6 5 6 8 9
4 5 5 4 4 4 4 4 3 3 3 3 3 3 2 2 2 2 2 2 3 3 3 3 2 3 4 5 5 6 8 6 6 7 7 6 7 11
3 4 4 4 4 4 4 4 4 3 3 3 3 3 3 2 2 2 2 4 3 3 4 4 5 7 4 3 5 6 6 9 9 7 6 6 6 5
4 4 3 4 4 4 4 4 3 3 3 3 3 3 2 2 3 3 3 2 3 3 4 4 4 3 1 2 5 7 7 8 9 12 10 8 5 5
4 4 3 4 4 4 4 4 4 3 3 3 3 3 3 2 2 2 2 2 3 3 3 3 3 2 2 3 4 5 7 8 6 6 6 10 13 14
Wind_Direction
209 208 211 211 203 207 202 195 207 250 260 238 235 228 228 234 267 268 270 294 300 303 303 304 304 303 301 300 299 299 299 298 298 297 295 293 293 292
204 205 212 210 205 202 204 207 207 221 250 237 222 220 226 253 274 274 274 297 303 304 304 304 305 306 304 303 302 300 300 299 299 298 296 296 296 295
203 205 213 204 203 202 197 200 208 209 244 258 220 219 219 247 278 276 273 278 293 301 302 303 306 307 308 306 304 303 303 301 299 298 297 297 297 297
206 205 212 201 204 199 198 205 210 207 221 251 244 225 233 243 262 276 285 287 283 296 301 304 306 308 309 310 310 309 306 304 302 301 300 300 299 298
205 205 206 196 205 203 203 208 210 209 212 230 246 233 242 254 276 279 283 282 289 293 297 302 306 309 311 312 312 311 309 305 303 302 301 301 300 299
204 204 201 199 204 202 204 208 200 199 205 224 240 244 248 258 254 272 289 277 287 291 294 304 307 310 311 311 311 310 308 305 303 302 301 301 301 300
200 202 203 201 203 199 197 196 190 194 199 213 230 232 237 240 245 245 273 291 282 271 289 294 295 292 299 305 307 305 306 305 304 305 305 305 305 303
197 200 201 199 204 206 207 197 189 192 199 202 218 228 238 228 233 249 268 301 292 274 284 287 282 282 286 281 297 304 306 307 308 308 308 308 306 303
194 192 192 196 193 190 195 191 194 201 198 194 206 219 224 219 218 243 242 245 257 272 287 279 277 280 285 293 301 302 305 308 309 310 310 308 307 306
194 191 188 188 189 181 173 177 188 200 204 198 201 211 213 209 205 216 235 265 275 273 253 272 282 281 294 289 295 300 307 311 312 311 309 307 308 307
194 190 186 188 189 178 169 174 178 193 194 193 203 207 212 215 199 125 12 307 289 274 245 262 287 298 290 278 287 301 309 311 311 311 310 311 310 310
185 189 192 189 185 179 175 176 186 194 173 163 168 169 158 210 228 183 191 231 273 277 256 269 289 318 307 287 283 294 299 304 310 311 313 313 310 310
181 184 189 186 185 184 181 184 193 172 157 154 155 161 161 181 230 224 205 203 230 253 256 276 280 284 276 298 298 287 285 295 302 301 308 312 311 311
179 176 178 178 178 179 180 177 168 152 142 150 164 187 199 214 233 243 249 241 234 243 250 236 244 253 278 288 290 296 297 290 292 295 299 307 309 309
166 167 166 168 166 166 168 164 155 147 151 168 191 210 208 207 216 253 272 278 281 267 255 238 239 253 251 265 281 288 303 298 289 294 301 303 299 300
144 153 154 153 146 145 147 149 146 157 165 178 187 190 176 184 213 234 258 290 303 298 282 263 255 254 262 263 265 277 279 281 298 303 303 299 291 282
139 131 134 140 144 143 139 141 149 153 161 162 163 172 186 210 243 245 237 252 265 281 295 296 284 270 253 251 266 267 274 279 282 296 305 303 295 283
141 151 159 163 167 168 168 169 171 172 172 169 172 183 197 213 242 252 248 248 268 274 279 290 316 325 316 274 234 254 268 275 288 293 291 295 297 293
144 159 167 172 174 173 175 176 181 177 171 175 182 188 197 209 225 248 263 270 273 276 280 282 287 298 308 306 290 243 262 291 297 295 286 282 287 292
157 165 170 171 171 172 174 171 167 164 170 179 185 189 193 203 221 239 250 257 272 280 287 284 264 262 269 280 287 286 284 283 288 293 294 291 279 282
163 163 164 165 168 170 170 169 169 175 179 181 190 191 193 199 221 237 248 271 274 267 279 281 275 295 282 275 284 287 286 289 290 287 292 297 297 292
157 159 162 165 166 167 167 165 167 173 176 184 190 190 193 201 219 233 240 254 260 260 265 278 293 303 268 262 283 290 297 304 306 302 287 274 285 294
157 155 156 161 163 163 164 166 171 181 183 185 189 190 192 206 218 227 235 243 257 270 281 293 306 295 273 266 279 288 295 305 311 316 304 304 299 290